GW6919 Weather Reports


time (UTC)temp
F
wind
direction
speed
knots
gust
knots
rain 1hr
in
rain 24hr
in
rain mn
in
humidity
%
barometer
mb
20260503131146 51 203 0.0 0.0 0.00 0.00 0.00 97 1011.6
20260503130643 51 203 0.0 0.0 0.00 0.00 0.00 97 1011.5
20260503130141 51 203 0.0 0.0 0.00 0.00 0.00 97 1011.4
20260503120106 52 208 0.0 0.0 0.00 0.00 0.00 96 1011.7
20260503110533 53 210 0.0 0.0 0.00 0.00 0.00 96 1011.8
20260503090420 55 231 0.0 0.0 0.00 0.00 0.00 94 1012.1
20260503081347 57 231 0.0 0.0 0.00 0.00 0.00 92 1012.1
20260503080843 57 232 0.0 0.0 0.00 0.00 0.00 92 1012.2
20260503080340 57 232 0.0 0.0 0.00 0.00 0.00 92 1012.4
20260503072817 58 234 0.0 0.0 0.00 0.00 0.00 90 1012.3
20260503072314 58 234 0.0 0.0 0.00 0.00 0.00 90 1012.4
20260503071810 58 235 0.0 0.0 0.00 0.00 0.00 90 1012.4
20260503071308 58 235 0.0 0.0 0.00 0.00 0.00 90 1012.4
20260503070803 58 235 0.0 0.0 0.00 0.00 0.00 89 1012.3
20260503070302 59 235 0.0 0.0 0.00 0.02 0.02 89 1012.3
20260503060226 60 228 0.0 0.9 0.00 0.02 0.02 86 1012.4
20260503054713 63 195 0.0 0.9 0.00 0.02 0.02 81 1011.6
20260503054211 62 180 0.0 0.9 0.00 0.02 0.02 81 1011.7
20260503053708 62 177 0.0 0.9 0.00 0.02 0.02 82 1011.9
20260503053207 62 183 0.0 0.9 0.00 0.02 0.02 82 1012.0
20260503052703 62 183 0.0 0.0 0.00 0.02 0.02 82 1012.2
20260503052159 62 183 0.0 0.0 0.00 0.02 0.02 81 1012.1
20260503051654 62 182 0.0 0.9 0.00 0.02 0.02 81 1012.2
20260503051153 63 197 0.0 0.0 0.00 0.02 0.02 81 1012.3
20260503050649 63 198 0.0 0.0 0.00 0.02 0.02 81 1012.2
20260503050146 63 214 0.0 0.0 0.00 0.02 0.02 81 1012.7
20260503045643 63 214 0.0 0.0 0.00 0.02 0.02 80 1012.5
20260503045140 63 214 0.0 0.0 0.00 0.02 0.02 80 1012.4
20260503044637 63 221 0.0 0.0 0.00 0.02 0.02 80 1012.4
20260503044135 63 220 0.0 0.0 0.00 0.02 0.02 79 1012.5
20260503043631 63 221 0.0 0.0 0.00 0.02 0.02 80 1012.7
20260503043128 64 181 0.0 0.0 0.00 0.02 0.02 78 1012.5
20260503042624 64 181 0.0 0.0 0.00 0.02 0.02 77 1012.3
20260503042120 64 181 0.0 0.0 0.00 0.02 0.02 77 1012.5
20260503041617 64 181 0.0 0.0 0.00 0.02 0.02 77 1012.5
20260503041115 64 205 0.0 0.0 0.00 0.02 0.02 77 1012.4
20260503040612 64 205 0.0 0.9 0.00 0.02 0.02 76 1012.3
20260503040109 65 222 0.0 0.0 0.00 0.02 0.02 76 1012.4
20260503035606 64 224 0.0 0.0 0.00 0.02 0.02 76 1012.4
20260503035104 65 224 0.0 0.0 0.00 0.02 0.02 76 1012.4
20260503034601 65 224 0.0 0.0 0.00 0.02 0.02 75 1012.4
20260503034058 65 225 0.0 0.0 0.00 0.02 0.02 76 1012.4
20260503033555 65 225 0.0 0.0 0.00 0.02 0.02 74 1012.3
20260503033053 65 226 0.0 0.0 0.00 0.02 0.02 74 1012.2
20260503032551 65 226 0.0 0.0 0.00 0.02 0.02 74 1012.4
20260503032049 65 228 0.0 0.0 0.00 0.02 0.02 74 1012.2
20260503031546 65 228 0.0 0.9 0.00 0.02 0.02 73 1012.3
20260503031043 66 244 2.6 4.3 0.00 0.02 0.02 73 1012.1
20260503030539 66 219 0.9 1.7 0.00 0.02 0.02 72 1012.0
20260503030036 66 245 0.9 1.7 0.00 0.02 0.02 72 1012.0
20260503025533 66 68 1.7 4.3 0.00 0.02 0.02 71 1012.0
20260503025031 67 220 0.9 2.6 0.00 0.02 0.02 71 1012.0
20260503024527 68 242 0.9 4.3 0.00 0.02 0.02 69 1011.8
20260503024024 68 244 1.7 4.3 0.00 0.02 0.02 69 1011.6
20260503023521 69 252 1.7 2.6 0.00 0.02 0.02 68 1011.8
20260503023019 69 262 0.9 1.7 0.00 0.02 0.02 69 1011.6
20260503022514 69 248 0.9 0.9 0.00 0.02 0.02 68 1011.5
20260503022009 70 241 0.9 1.7 0.00 0.02 0.02 68 1011.6
20260503021506 70 235 0.9 1.7 0.00 0.02 0.02 69 1011.5
20260503021003 71 239 0.9 0.9 0.00 0.02 0.02 66 1011.1
20260503020500 71 246 0.9 0.9 0.00 0.02 0.02 65 1011.0
20260503015956 71 234 0.9 0.9 0.00 0.02 0.02 66 1011.0
20260503015454 71 260 0.9 0.9 0.00 0.02 0.02 64 1010.8
20260503014950 71 243 0.9 0.9 0.00 0.02 0.02 64 1010.9
20260503014446 72 264 0.0 0.0 0.00 0.02 0.02 64 1010.8
20260503013945 71 258 0.0 0.0 0.00 0.02 0.02 64 1010.8
20260503013441 71 251 0.9 0.9 0.00 0.02 0.02 67 1010.9
20260503012939 71 244 0.0 1.7 0.00 0.02 0.02 65 1010.8
20260503012437 72 235 0.9 0.9 0.00 0.02 0.02 62 1010.7
20260503011933 72 240 0.9 0.9 0.00 0.02 0.02 62 1010.8
20260503011430 71 264 0.9 0.9 0.00 0.02 0.02 63 1010.8
20260503010927 72 229 0.9 1.7 0.00 0.02 0.02 62 1011.0
20260503010423 72 260 0.0 1.7 0.00 0.02 0.02 62 1010.7
20260503005920 72 244 0.9 0.9 0.00 0.02 0.02 62 1010.7
20260503005418 73 236 0.9 0.9 0.00 0.02 0.02 60 1010.8
20260503004914 73 270 0.0 1.7 0.00 0.02 0.02 60 1010.9
20260503004411 73 246 0.9 1.7 0.00 0.02 0.02 60 1010.9
20260503003909 73 250 0.9 1.7 0.00 0.02 0.02 59 1010.8
20260503003405 72 282 1.7 2.6 0.00 0.02 0.02 60 1010.7
20260503002903 73 210 0.9 1.7 0.00 0.02 0.02 60 1010.8
20260503002400 73 235 0.9 2.6 0.00 0.02 0.02 59 1010.8
20260503001856 72 246 0.0 1.7 0.00 0.02 0.02 60 1010.9
20260503001353 72 244 1.7 1.7 0.00 0.02 0.02 61 1011.0
20260503000850 73 268 2.6 4.3 0.00 0.02 0.02 58 1011.0
20260503000348 72 232 0.9 2.6 0.00 0.02 0.02 59 1011.0
20260502235844 73 273 2.6 4.3 0.00 0.02 0.02 60 1010.9
20260502235341 72 222 0.9 0.9 0.00 0.02 0.02 59 1011.0
20260502234838 72 238 0.9 5.2 0.00 0.02 0.02 59 1010.9
20260502234335 73 224 0.9 5.2 0.00 0.02 0.02 59 1011.2
20260502233832 72 277 1.7 2.6 0.00 0.02 0.02 59 1011.1
20260502233328 71 249 0.9 2.6 0.00 0.02 0.02 61 1011.2
20260502232825 71 243 0.9 2.6 0.00 0.02 0.02 61 1011.3
20260502232321 71 268 0.9 1.7 0.00 0.02 0.02 61 1011.4
20260502231818 72 262 1.7 5.2 0.00 0.02 0.02 60 1011.3
20260502231316 71 255 1.7 1.7 0.00 0.02 0.02 60 1011.3
20260502230814 71 244 0.9 4.3 0.00 0.02 0.02 60 1011.5
20260502230312 71 231 2.6 4.3 0.00 0.02 0.02 60 1011.6
20260502225808 71 261 0.9 1.7 0.00 0.02 0.02 60 1011.6
20260502225305 71 276 0.0 0.9 0.00 0.02 0.02 59 1011.7
20260502224801 69 223 0.9 1.7 0.00 0.02 0.02 61 1011.9
20260502224258 69 214 2.6 5.2 0.00 0.02 0.02 62 1012.1
20260502223755 69 259 1.7 4.3 0.00 0.02 0.02 62 1012.0
20260502223254 69 259 1.7 4.3 0.00 0.02 0.02 62 1012.0
20260502222751 69 252 0.9 2.6 0.00 0.02 0.02 62 1012.1
20260502222248 69 230 1.7 4.3 0.00 0.02 0.02 62 1012.3
20260502221743 69 251 0.9 1.7 0.00 0.02 0.02 62 1012.3
20260502221240 69 250 0.9 2.6 0.00 0.02 0.02 62 1012.4
20260502220737 69 272 0.0 1.7 0.00 0.02 0.02 62 1012.6
20260502220233 68 269 0.0 1.7 0.00 0.02 0.02 64 1012.7
20260502215730 67 284 0.9 2.6 0.00 0.02 0.02 65 1012.8
20260502215227 67 257 0.9 2.6 0.00 0.02 0.02 64 1012.6
20260502214724 67 269 0.0 2.6 0.00 0.02 0.02 65 1012.8
20260502214221 67 261 0.0 2.6 0.00 0.02 0.02 65 1012.9
20260502213718 69 263 1.7 4.3 0.00 0.02 0.02 62 1013.0